| time (UTC) | temp F | wind direction | speed MPH | gust MPH | rain 1hr in | rain 24hr in | rain mn in | humidity % | barometer mb |
| 20260905144545 | 69 | 110 | 2.0 | 5.0 | 0.00 | 0.00 | 0.00 | 21 | 879.8 |
| 20260905143041 | 67 | 111 | 4.0 | 8.0 | 0.00 | 0.00 | 0.00 | 19 | 879.6 |
| 20260905141537 | 66 | 109 | 3.0 | 7.0 | 0.00 | 0.00 | 0.00 | 21 | 879.3 |
| 20260905140041 | 64 | 107 | 3.0 | 5.0 | 0.00 | 0.00 | 0.00 | 20 | 879.2 |
| 20260905134537 | 62 | 81 | 1.0 | 5.0 | 0.00 | 0.00 | 0.00 | 21 | 879.0 |
| 20260905133042 | 63 | 88 | 1.0 | 7.0 | 0.00 | 0.00 | 0.00 | 21 | 878.9 |
| 20260905131538 | 63 | 112 | 2.0 | 7.0 | 0.00 | 0.00 | 0.00 | 21 | 878.6 |
| 20260905130033 | 63 | 69 | 3.0 | 8.0 | 0.00 | 0.00 | 0.00 | 20 | 878.5 |
| 20260905124535 | 63 | 40 | 3.0 | 8.0 | 0.00 | 0.00 | 0.00 | 19 | 878.5 |
| 20260905123031 | 64 | 105 | 3.0 | 8.0 | 0.00 | 0.00 | 0.00 | 18 | 878.5 |
| 20260905121531 | 65 | 91 | 4.0 | 8.0 | 0.00 | 0.00 | 0.00 | 16 | 878.5 |
| 20260905120031 | 65 | 82 | 2.0 | 7.0 | 0.00 | 0.00 | 0.00 | 17 | 878.3 |
| 20260905114529 | 66 | 134 | 4.0 | 11.0 | 0.00 | 0.00 | 0.00 | 15 | 878.3 |
| 20260905113033 | 64 | 89 | 3.0 | 9.0 | 0.00 | 0.00 | 0.00 | 15 | 878.4 |
| 20260905111535 | 64 | 118 | 5.0 | 10.0 | 0.00 | 0.00 | 0.00 | 13 | 878.4 |
| 20260905110037 | 64 | 78 | 4.0 | 9.0 | 0.00 | 0.00 | 0.00 | 11 | 878.4 |
| 20260905104527 | 63 | 88 | 3.0 | 8.0 | 0.00 | 0.00 | 0.00 | 13 | 878.5 |
| 20260905103020 | 63 | 115 | 2.0 | 11.0 | 0.00 | 0.00 | 0.00 | 15 | 878.4 |
| 20260905101518 | 61 | 73 | 1.0 | 8.0 | 0.00 | 0.00 | 0.00 | 17 | 878.4 |
| 20260905100016 | 59 | 41 | 1.0 | 4.0 | 0.00 | 0.00 | 0.00 | 18 | 878.5 |
| 20260905094515 | 59 | 36 | 1.0 | 5.0 | 0.00 | 0.00 | 0.00 | 19 | 878.7 |
| 20260905093015 | 60 | 103 | 2.0 | 5.0 | 0.00 | 0.00 | 0.00 | 18 | 878.7 |
| 20260905091514 | 61 | 107 | 1.0 | 4.0 | 0.00 | 0.00 | 0.00 | 18 | 878.6 |
| 20260905090016 | 60 | 60 | 2.0 | 10.0 | 0.00 | 0.00 | 0.00 | 18 | 878.7 |
| 20260905084508 | 61 | 95 | 2.0 | 7.0 | 0.00 | 0.00 | 0.00 | 19 | 878.8 |
| 20260905083006 | 60 | 104 | 3.0 | 10.0 | 0.00 | 0.00 | 0.00 | 20 | 878.9 |
| 20260905081503 | 61 | 107 | 4.0 | 8.0 | 0.00 | 0.00 | 0.00 | 24 | 879.0 |
| 20260905080002 | 61 | 101 | 5.0 | 11.0 | 0.00 | 0.00 | 0.00 | 22 | 879.1 |
| 20260905074600 | 61 | 66 | 4.0 | 9.0 | 0.00 | 0.00 | 0.00 | 23 | 879.2 |
| 20260905073101 | 61 | 107 | 4.0 | 13.0 | 0.00 | 0.00 | 0.00 | 27 | 879.1 |
| 20260905071557 | 61 | 96 | 4.0 | 13.0 | 0.00 | 0.00 | 0.00 | 26 | 879.1 |
| 20260905070054 | 61 | 37 | 5.0 | 13.0 | 0.00 | 0.00 | 0.00 | 27 | 878.9 |
| 20260905064553 | 61 | 66 | 4.0 | 9.0 | 0.00 | 0.00 | 0.00 | 27 | 878.9 |
| 20260905063053 | 61 | 88 | 4.0 | 10.0 | 0.00 | 0.00 | 0.00 | 28 | 878.9 |
| 20260905061558 | 62 | 87 | 5.0 | 9.0 | 0.00 | 0.00 | 0.00 | 29 | 878.8 |
| 20260905060051 | 62 | 96 | 9.0 | 14.0 | 0.00 | 0.00 | 0.00 | 27 | 878.8 |
| 20260905054551 | 61 | 102 | 4.0 | 9.0 | 0.00 | 0.00 | 0.00 | 34 | 878.8 |
| 20260905053051 | 61 | 105 | 7.0 | 11.0 | 0.00 | 0.00 | 0.00 | 31 | 878.8 |
| 20260905051552 | 60 | 87 | 4.0 | 8.0 | 0.00 | 0.00 | 0.00 | 37 | 878.8 |
| 20260905050052 | 61 | 89 | 5.0 | 10.0 | 0.00 | 0.00 | 0.00 | 39 | 878.7 |
| 20260905044550 | 61 | 113 | 6.0 | 10.0 | 0.00 | 0.00 | 0.00 | 42 | 878.6 |
| 20260905043056 | 60 | 74 | 5.0 | 9.0 | 0.00 | 0.00 | 0.00 | 42 | 878.5 |
| 20260905041549 | 60 | 90 | 6.0 | 9.0 | 0.00 | 0.00 | 0.00 | 43 | 878.6 |
| 20260905040048 | 60 | 121 | 4.0 | 8.0 | 0.00 | 0.00 | 0.00 | 42 | 878.5 |
| 20260905034600 | 59 | 110 | 4.0 | 9.0 | 0.00 | 0.00 | 0.00 | 48 | 878.4 |
| 20260905033110 | 60 | 109 | 4.0 | 8.0 | 0.00 | 0.00 | 0.00 | 50 | 878.3 |
| 20260905031559 | 60 | 84 | 5.0 | 10.0 | 0.00 | 0.00 | 0.00 | 51 | 878.1 |
| 20260905030056 | 60 | 106 | 8.0 | 13.0 | 0.00 | 0.00 | 0.00 | 51 | 878.0 |
| 20260905024546 | 60 | 96 | 5.0 | 9.0 | 0.00 | 0.00 | 0.00 | 51 | 877.9 |
| 20260905023054 | 61 | 105 | 3.0 | 7.0 | 0.00 | 0.00 | 0.00 | 50 | 877.9 |
| 20260905021546 | 63 | 113 | 4.0 | 10.0 | 0.00 | 0.00 | 0.00 | 47 | 877.9 |
| 20260905020043 | 64 | 81 | 7.0 | 13.0 | 0.00 | 0.00 | 0.00 | 47 | 877.9 |
| 20260905014541 | 65 | 107 | 6.0 | 14.0 | 0.00 | 0.00 | 0.00 | 45 | 878.0 |
| 20260905013043 | 67 | 100 | 7.0 | 13.0 | 0.00 | 0.00 | 0.00 | 44 | 877.9 |
| 20260905011541 | 68 | 151 | 7.0 | 16.0 | 0.00 | 0.00 | 0.00 | 43 | 878.0 |
| 20260905010043 | 68 | 120 | 6.0 | 14.0 | 0.00 | 0.00 | 0.00 | 44 | 877.9 |
| 20260905004540 | 70 | 109 | 6.0 | 17.0 | 0.00 | 0.00 | 0.00 | 44 | 877.9 |
| 20260905003039 | 70 | 102 | 10.0 | 18.0 | 0.00 | 0.00 | 0.00 | 45 | 878.0 |
| 20260905001541 | 71 | 109 | 10.0 | 19.0 | 0.00 | 0.00 | 0.00 | 45 | 877.9 |
| 20260905000038 | 71 | 117 | 10.0 | 19.0 | 0.00 | 0.00 | 0.00 | 45 | 878.0 |
| 20260904234536 | 72 | 108 | 11.0 | 17.0 | 0.00 | 0.00 | 0.00 | 43 | 877.9 |
| 20260904233041 | 73 | 136 | 13.0 | 21.0 | 0.00 | 0.00 | 0.00 | 43 | 878.1 |
| 20260904231538 | 74 | 144 | 10.0 | 18.0 | 0.00 | 0.00 | 0.00 | 41 | 878.0 |
| 20260904230100 | 74 | 106 | 8.0 | 18.0 | 0.00 | 0.00 | 0.00 | 39 | 878.2 |
| 20260904224534 | 76 | 122 | 8.0 | 16.0 | 0.00 | 0.00 | 0.00 | 37 | 878.3 |
| 20260904223031 | 75 | 116 | 6.0 | 19.0 | 0.00 | 0.00 | 0.00 | 35 | 878.4 |
| 20260904221530 | 76 | 109 | 9.0 | 15.0 | 0.00 | 0.00 | 0.00 | 34 | 878.4 |
| 20260904220029 | 75 | 117 | 8.0 | 15.0 | 0.00 | 0.00 | 0.00 | 33 | 878.6 |
| 20260904214528 | 76 | 123 | 8.0 | 17.0 | 0.00 | 0.00 | 0.00 | 31 | 878.7 |
| 20260904213031 | 76 | 154 | 12.0 | 19.0 | 0.00 | 0.00 | 0.00 | 32 | 878.7 |
| 20260904211528 | 76 | 98 | 8.0 | 22.0 | 0.00 | 0.00 | 0.00 | 31 | 878.6 |
| 20260904210026 | 76 | 86 | 6.0 | 21.0 | 0.00 | 0.00 | 0.00 | 28 | 878.7 |
| 20260904204531 | 76 | 157 | 10.0 | 18.0 | 0.00 | 0.00 | 0.00 | 28 | 878.6 |
| 20260904203023 | 76 | 165 | 10.0 | 17.0 | 0.00 | 0.00 | 0.00 | 29 | 878.8 |
| 20260904201521 | 75 | 140 | 6.0 | 16.0 | 0.00 | 0.00 | 0.00 | 30 | 878.7 |
| 20260904200024 | 75 | 118 | 8.0 | 16.0 | 0.00 | 0.00 | 0.00 | 26 | 878.7 |
| 20260904194520 | 75 | 140 | 12.0 | 19.0 | 0.00 | 0.00 | 0.00 | 24 | 878.7 |
| 20260904193017 | 75 | 141 | 7.0 | 18.0 | 0.00 | 0.00 | 0.00 | 25 | 878.9 |
| 20260904191524 | 75 | 101 | 10.0 | 16.0 | 0.00 | 0.00 | 0.00 | 25 | 878.8 |
| 20260904190016 | 75 | 142 | 8.0 | 18.0 | 0.00 | 0.00 | 0.00 | 25 | 879.1 |
| 20260904184515 | 75 | 161 | 6.0 | 14.0 | 0.00 | 0.00 | 0.00 | 24 | 879.0 |
| 20260904183011 | 74 | 114 | 7.0 | 12.0 | 0.00 | 0.00 | 0.00 | 25 | 879.2 |
| 20260904181510 | 73 | 111 | 8.0 | 18.0 | 0.00 | 0.00 | 0.00 | 24 | 879.2 |
| 20260904180008 | 73 | 144 | 9.0 | 13.0 | 0.00 | 0.00 | 0.00 | 21 | 879.2 |
| 20260904174506 | 72 | 172 | 7.0 | 13.0 | 0.00 | 0.00 | 0.00 | 20 | 879.1 |
| 20260904173005 | 71 | 173 | 6.0 | 13.0 | 0.00 | 0.00 | 0.00 | 18 | 879.0 |
| 20260904171614 | 71 | 142 | 6.0 | 14.0 | 0.00 | 0.00 | 0.00 | 19 | 879.0 |
| 20260904170058 | 70 | 82 | 5.0 | 16.0 | 0.00 | 0.00 | 0.00 | 18 | 878.9 |
| 20260904164611 | 70 | 176 | 7.0 | 15.0 | 0.00 | 0.00 | 0.00 | 21 | 878.6 |
| 20260904163052 | 69 | 142 | 7.0 | 15.0 | 0.00 | 0.00 | 0.00 | 23 | 878.4 |
| 20260904161551 | 68 | 130 | 7.0 | 14.0 | 0.00 | 0.00 | 0.00 | 20 | 878.4 |
| 20260904160048 | 67 | 164 | 8.0 | 14.0 | 0.00 | 0.00 | 0.00 | 23 | 878.1 |
| 20260904154543 | 66 | 169 | 6.0 | 14.0 | 0.00 | 0.00 | 0.00 | 20 | 878.0 |
| 20260904153059 | 65 | 119 | 8.0 | 15.0 | 0.00 | 0.00 | 0.00 | 15 | 877.9 |
| 20260904151544 | 64 | 123 | 8.0 | 13.0 | 0.00 | 0.00 | 0.00 | 14 | 877.7 |
| 20260904150041 | 64 | 130 | 7.0 | 13.0 | 0.00 | 0.00 | 0.00 | 14 | 877.6 |